Date,TemperatureHighF,TemperatureAvgF,TemperatureLowF,DewpointHighF,DewpointAvgF,DewpointLowF,HumidityHigh,HumidityAvg,HumidityLow,PressureMaxIn,PressureMinIn,WindSpeedMaxMPH,WindSpeedAvgMPH,GustSpeedMaxMPH,PrecipitationSumIn
2013-1-1,33.0,24.4,15.3,28.4,16.8,9.8,83,73,54,30.07,29.90,4,1,10,0.00
2013-1-2,28.8,21.9,14.4,19.3,15.3,11.2,87,75,66,30.23,30.04,4,2,10,0.00
2013-1-3,31.0,24.4,14.4,27.6,20.4,11.2,91,85,77,30.22,30.00,6,2,16,0.00
2013-1-4,32.5,29.3,26.7,26.3,23.6,21.2,85,79,76,30.10,29.98,11,4,16,0.00
2013-1-5,37.2,31.4,29.2,29.2,25.7,23.2,86,80,70,30.31,30.06,5,2,13,0.00
2013-1-6,35.6,34.4,32.3,33.3,31.5,25.6,93,89,75,30.07,29.91,5,3,15,0.19
2013-1-8,31.0,28.5,26.7,27.4,25.4,23.8,95,88,77,30.32,30.28,1,0,3,0.00
2013-1-9,39.3,34.8,26.6,34.2,29.1,22.5,87,80,70,30.39,30.16,6,2,11,0.00
2013-1-10,42.7,36.1,31.0,29.6,28.2,26.5,86,73,57,30.62,30.39,3,0,5,0.00
2013-1-11,51.0,42.8,32.8,47.1,37.9,27.3,88,83,71,30.39,29.85,7,2,17,0.11
2013-1-12,58.9,53.1,47.9,50.9,48.4,44.8,90,84,73,29.99,29.93,6,3,16,0.00
2013-1-13,64.3,53.1,44.5,56.6,49.6,43.4,96,88,74,29.94,29.73,8,3,20,0.45
2013-1-14,44.4,33.0,26.6,43.3,26.7,19.4,96,78,65,30.42,29.75,5,2,13,0.07
2013-1-15,31.7,27.9,25.2,22.2,20.9,19.4,84,75,64,30.44,30.18,3,0,6,0.00
2013-1-16,38.3,32.5,27.8,30.7,25.5,20.3,82,75,66,30.19,29.81,6,2,18,0.00
2013-1-17,34.9,25.5,15.2,29.4,19.5,11.7,90,78,72,30.20,29.88,6,3,12,0.00
2013-1-18,33.5,21.8,13.6,20.6,13.7,8.6,91,72,58,30.48,30.05,8,3,17,0.00
2013-1-19,47.4,41.9,33.4,32.9,28.2,20.2,67,58,48,30.05,29.57,9,4,22,0.00
2013-1-20,47.2,29.8,17.5,35.3,18.6,9.4,83,63,48,30.12,29.48,11,5,28,0.00
2013-1-21,20.9,17.3,10.6,15.7,9.3,-0.2,88,70,56,30.10,29.90,4,1,9,0.00
2013-1-22,12.3,8.4,4.8,0.1,-2.6,-4.9,67,60,52,30.24,29.95,7,4,13,0.00
2013-1-23,16.0,10.4,4.4,6.6,0.1,-3.3,78,63,46,30.28,30.14,3,1,7,0.00
2013-1-24,13.0,11.4,7.9,9.9,6.8,3.3,90,82,66,30.27,30.13,1,0,3,0.00
2013-1-26,20.4,19.5,18.5,16.1,14.6,14.0,84,81,78,30.44,30.38,2,0,4,0.00
2013-1-27,31.2,21.4,10.4,20.5,15.9,8.2,93,80,60,30.59,30.35,3,0,5,0.00
2013-1-28,42.5,35.2,25.5,41.7,32.6,17.4,97,91,66,30.35,29.86,5,2,9,0.13
2013-1-29,57.9,43.8,35.0,54.4,42.4,33.4,98,95,87,30.05,29.69,5,2,9,0.61
2013-1-30,64.8,58.2,49.4,55.5,51.5,45.6,96,79,64,29.69,29.03,9,5,18,0.63
2013-1-31,50.2,28.8,21.3,47.1,20.7,11.6,93,72,48,29.75,29.04,10,6,20,0.06
2013-2-1,23.9,19.4,16.8,16.2,12.5,7.8,87,74,56,30.22,29.75,5,3,15,0.00
2013-2-2,20.5,17.7,14.0,17.4,13.2,6.1,92,83,70,30.21,29.99,5,2,12,0.00
2013-2-3,26.7,18.6,8.4,18.1,13.9,6.3,93,82,57,30.00,29.82,3,0,6,0.00
2013-2-4,21.5,17.7,13.1,14.2,11.3,8.0,84,76,62,30.01,29.90,4,2,8,0.00
2013-2-5,29.7,22.2,14.7,23.0,15.7,11.1,91,77,55,29.97,29.86,4,1,9,0.00
2013-2-6,28.1,24.7,17.8,23.7,17.0,12.3,87,73,55,30.38,29.90,5,2,8,0.00
2013-2-7,32.2,24.9,17.3,21.3,17.5,13.3,86,74,59,30.39,30.07,4,1,9,0.00
2013-2-8,32.4,26.0,16.8,31.1,23.1,14.4,95,89,78,30.17,29.78,3,1,5,0.00
2013-2-9,22.8,17.5,10.7,17.3,14.2,8.6,94,87,77,30.45,30.17,1,0,2,0.00
2013-2-10,40.6,24.1,3.1,29.0,16.9,0.6,93,76,52,30.43,29.93,3,0,5,0.08
2013-2-11,50.1,38.7,32.0,41.7,32.1,24.6,93,78,53,29.94,29.58,9,5,20,0.34
2013-2-12,33.9,32.2,30.6,29.7,27.0,23.4,92,81,74,29.99,29.75,7,4,15,0.00
2013-2-13,38.4,31.0,22.2,25.2,23.3,19.7,91,73,56,29.92,29.74,3,0,5,0.00
2013-2-14,24.0,23.0,21.4,21.7,20.8,19.0,93,91,89,29.86,29.83,0,0,0,0.00
2013-2-15,32.8,26.3,20.4,22.6,17.7,14.5,81,70,62,30.09,29.98,5,2,9,0.00
2013-2-16,31.0,24.2,18.9,20.8,15.2,9.4,88,69,48,30.09,29.93,3,1,5,0.00
2013-2-17,20.4,15.8,11.6,17.8,9.5,4.2,90,76,61,30.26,29.93,5,2,10,0.00
2013-2-18,36.4,23.2,7.9,22.8,12.0,4.8,91,64,39,30.31,29.88,3,1,5,0.00
2013-2-19,43.5,34.1,23.3,37.1,27.4,18.5,92,77,50,29.88,29.55,8,4,16,0.46
2013-2-20,23.8,20.9,18.8,18.4,13.5,10.7,86,73,61,30.14,29.79,7,5,13,0.00
2013-2-21,23.9,19.8,15.7,15.9,13.2,10.1,84,75,63,30.44,30.11,4,2,12,0.00
2013-2-22,35.8,28.3,20.4,31.1,23.1,15.8,91,81,64,30.41,29.99,4,1,9,0.03
2013-2-23,38.5,33.5,30.3,31.9,28.4,24.5,85,81,74,29.99,29.89,4,2,9,0.01
2013-2-24,32.1,30.2,28.1,26.9,25.1,23.6,89,81,75,30.11,29.87,4,2,12,0.00
2013-2-25,35.5,30.8,23.9,29.0,25.8,21.9,93,82,73,30.25,30.11,3,1,4,0.00
2013-2-26,43.7,33.6,22.5,33.2,26.6,20.7,94,78,49,30.24,29.70,6,2,12,0.88
2013-2-27,35.2,33.8,32.4,34.1,32.4,31.4,97,94,90,29.72,29.58,5,1,7,0.50
2013-2-28,34.5,32.8,31.4,32.1,31.5,29.6,97,95,90,29.78,29.56,3,1,7,0.26
2013-3-1,31.3,28.1,24.4,29.5,23.9,20.0,93,84,77,29.99,29.78,4,2,8,0.00
2013-3-2,25.9,23.6,20.5,20.7,19.0,16.6,87,82,76,29.99,29.93,4,1,8,0.00
2013-3-3,26.3,22.9,20.6,21.0,18.6,16.3,91,84,74,29.97,29.90,3,1,6,0.00
2013-3-4,31.4,25.3,17.8,22.9,19.3,14.6,88,78,64,30.10,29.96,4,2,9,0.02
2013-3-5,35.5,27.6,19.6,24.0,21.1,16.4,88,77,60,30.13,29.96,4,1,9,0.05
2013-3-6,42.5,32.9,24.6,31.7,27.4,21.2,89,81,61,30.17,29.95,5,2,11,0.00
2013-3-7,39.4,34.2,29.5,32.6,30.1,26.0,94,85,67,30.30,30.16,4,1,6,0.04
2013-3-8,43.2,35.0,28.5,30.6,27.2,22.2,95,76,49,30.43,30.30,6,2,12,0.03
2013-3-9,49.3,36.0,25.4,34.2,28.9,24.2,96,78,47,30.44,30.18,2,0,5,0.00
2013-3-10,66.9,53.8,36.0,33.4,28.0,22.8,71,39,26,30.18,29.92,6,3,9,0.00
2013-3-11,65.3,56.6,46.5,44.1,31.8,28.9,91,40,28,29.93,29.60,8,4,13,0.11
2013-3-12,46.4,36.7,33.1,43.3,32.6,28.5,94,85,76,29.92,29.69,6,3,11,0.04
2013-3-13,36.9,31.0,22.8,30.4,25.6,13.3,91,80,61,30.02,29.85,6,3,15,0.03
2013-3-14,22.8,22.1,21.8,14.0,13.1,12.6,70,68,66,30.05,30.03,5,2,7,0.00
2013-3-15,33.6,31.0,28.5,25.2,22.2,20.3,73,70,66,29.91,29.85,2,0,3,0.01
2013-3-16,29.4,26.7,19.4,21.8,18.6,15.7,88,72,63,30.02,29.84,4,2,10,0.00
2013-3-17,31.7,25.8,19.3,21.4,16.1,9.4,89,68,46,30.35,30.01,4,1,7,0.00
2013-3-18,36.0,27.7,19.0,31.8,18.9,8.0,91,70,47,30.35,29.67,6,2,10,0.02
2013-3-19,37.1,31.2,24.3,34.1,26.1,18.6,94,81,63,29.86,29.65,7,4,15,0.16
2013-3-20,33.9,26.8,21.2,23.1,20.0,15.7,90,76,53,29.87,29.82,6,2,10,0.00
2013-3-21,29.3,24.7,18.6,25.7,18.6,12.9,89,78,57,29.86,29.74,5,2,12,0.00
2013-3-22,31.7,28.1,24.6,26.7,24.3,20.6,90,85,79,29.98,29.79,5,3,10,0.01
2013-3-23,41.0,32.9,26.6,27.4,24.0,20.5,86,71,48,30.05,29.95,3,1,8,0.02
2013-3-24,39.5,31.3,20.8,28.5,22.6,18.8,94,72,51,30.06,29.72,5,2,11,0.00
2013-3-25,41.7,35.4,31.1,30.5,26.4,23.6,82,70,56,29.76,29.61,5,2,9,0.00
2013-3-26,47.4,37.7,31.5,34.0,30.2,27.2,88,75,53,29.98,29.76,4,1,13,0.00
2013-3-27,42.8,34.1,31.1,33.4,30.1,25.6,95,86,68,30.09,29.97,6,2,11,0.15
2013-3-28,41.7,35.3,32.2,36.6,32.8,30.7,96,91,80,30.24,30.08,4,1,8,0.30
2013-3-29,47.9,38.6,32.3,35.2,32.3,29.6,93,79,53,30.23,30.17,5,2,8,0.00
2013-3-30,50.9,39.4,26.4,34.4,26.7,21.9,96,65,34,30.24,30.02,6,1,12,0.01
2013-3-31,59.3,46.1,38.5,42.4,31.0,23.2,94,59,32,30.02,29.60,6,2,13,0.03
2013-4-1,45.9,35.2,26.2,41.3,24.8,13.4,92,68,40,29.99,29.58,7,3,11,0.03
2013-4-2,34.6,28.8,22.9,22.9,17.5,14.1,79,63,49,30.16,29.99,6,3,15,0.00
2013-4-3,38.2,30.2,25.0,22.2,17.3,12.7,78,60,36,30.43,30.16,4,2,11,0.00
2013-4-4,51.6,35.8,23.6,23.5,17.8,9.2,83,52,21,30.38,29.93,5,2,9,0.00
2013-4-5,45.5,37.6,29.1,29.0,22.0,13.1,72,54,38,30.19,29.90,6,2,9,0.00
2013-4-6,51.8,37.1,19.3,27.0,18.6,11.5,89,52,20,30.33,30.00,4,1,6,0.00
2013-4-7,64.1,53.4,42.8,45.6,33.7,18.3,72,49,27,30.04,29.70,9,4,17,0.00
2013-4-8,62.8,47.4,30.9,50.1,37.5,28.0,94,71,42,30.10,29.74,7,1,13,0.27
2013-4-9,62.2,50.2,43.5,49.4,43.8,40.5,96,80,47,30.12,29.78,5,2,11,1.15
2013-4-10,47.6,43.5,39.0,46.2,42.3,37.1,97,95,92,30.03,29.84,6,3,10,0.71
2013-4-11,39.1,34.7,32.3,37.0,32.2,29.7,94,91,78,30.11,29.89,6,3,12,0.60
2013-4-12,49.5,38.0,33.3,49.0,36.4,31.2,98,94,85,29.88,29.49,8,4,15,0.74
2013-4-13,43.6,39.7,37.1,36.5,35.0,33.3,89,83,71,29.95,29.78,7,4,15,0.00
2013-4-14,49.2,41.0,34.6,34.0,29.9,26.1,87,66,45,30.17,29.95,5,2,8,0.00
2013-4-15,73.7,56.7,37.4,48.4,40.2,29.0,76,57,38,30.13,29.96,7,2,14,0.00
2013-4-16,63.0,56.0,45.3,56.1,49.4,39.8,95,80,58,30.22,29.93,9,4,15,0.17
2013-4-17,58.0,47.1,34.2,39.4,34.7,31.6,95,64,43,30.36,30.16,5,2,10,0.00
2013-4-18,83.6,64.9,46.1,59.8,49.6,32.2,69,59,44,30.18,29.63,10,5,18,0.00
2013-4-19,72.2,56.0,40.6,59.1,46.5,30.6,90,71,59,29.75,29.33,11,6,19,0.10
2013-4-20,40.8,37.0,30.8,32.9,26.6,20.5,88,67,47,30.43,29.74,7,4,15,0.01
2013-4-21,46.9,36.3,21.7,26.9,22.8,18.2,91,60,42,30.69,30.43,4,2,9,0.00
2013-4-22,63.7,48.5,29.1,33.8,25.7,19.8,76,44,23,30.58,30.30,4,2,8,0.00
2013-4-23,69.4,55.5,37.8,36.7,31.8,24.4,73,42,24,30.30,29.89,3,1,5,0.00
2013-4-24,61.7,53.0,36.7,54.1,42.3,32.9,94,70,36,30.05,29.61,7,4,13,0.56
2013-4-25,55.7,43.3,35.3,39.1,34.2,25.6,94,74,35,30.33,30.05,6,2,12,0.04
2013-4-26,55.2,45.2,34.4,39.3,30.9,19.7,97,62,27,30.49,30.33,5,1,9,0.01
2013-4-27,72.1,54.9,34.1,41.4,31.1,23.3,77,44,21,30.43,30.18,4,1,7,0.00
2013-4-28,73.8,59.4,42.9,49.4,40.8,34.5,76,53,24,30.18,29.95,6,3,10,0.08
2013-4-29,66.3,58.9,51.8,53.6,49.9,45.8,86,72,63,30.01,29.92,5,2,8,0.09
2013-4-30,76.2,65.1,56.7,54.6,52.5,49.9,88,66,45,30.17,30.01,4,2,9,0.00
2013-5-1,81.9,67.6,57.9,56.7,50.2,38.5,73,55,34,30.29,30.17,5,2,8,0.00
2013-5-2,81.0,67.7,50.6,44.0,38.0,30.2,62,35,17,30.38,30.21,4,2,8,0.00
2013-5-3,80.9,68.3,52.1,47.7,41.8,37.2,63,40,25,30.26,30.14,4,1,6,0.00
2013-5-4,76.2,65.5,52.7,46.0,40.6,32.7,65,42,22,30.24,30.09,6,2,11,0.00
2013-5-5,78.7,64.3,45.4,47.0,44.0,37.7,89,52,25,30.18,30.03,5,1,9,0.00
2013-5-6,78.5,62.0,42.7,44.8,37.3,28.5,84,46,18,30.13,29.99,5,1,9,0.00
2013-5-7,79.6,66.1,49.5,54.0,50.0,41.3,90,58,35,30.09,29.96,5,1,12,0.00
2013-5-8,71.1,62.1,53.4,61.1,55.5,49.6,94,80,59,30.01,29.91,2,0,3,0.16
2013-5-9,67.7,59.2,55.5,60.1,55.7,50.7,97,88,70,29.95,29.87,3,1,5,0.10
2013-5-10,75.7,60.0,47.8,61.7,55.2,46.7,97,85,57,29.94,29.69,5,1,10,0.52
2013-5-11,59.9,50.0,46.6,57.9,46.7,43.1,96,89,77,29.78,29.66,6,3,12,0.10
2013-5-12,51.2,42.7,37.0,47.3,36.2,29.9,92,78,59,29.97,29.69,7,3,13,0.12
2013-5-13,47.1,40.3,33.9,37.4,32.6,29.7,85,74,62,30.16,29.97,5,2,12,0.00
2013-5-14,58.3,48.3,33.2,40.4,33.2,25.6,96,60,29,30.16,29.90,4,1,6,0.00
2013-5-15,78.1,63.5,50.3,57.6,48.3,40.3,78,59,38,29.91,29.54,8,2,18,0.00
2013-5-16,66.7,56.9,51.8,48.8,44.1,34.3,81,64,30,30.01,29.72,3,1,6,0.00
2013-5-17,67.3,55.2,39.8,44.3,40.9,37.3,93,61,40,30.21,30.01,3,1,6,0.00
2013-5-18,74.7,61.5,47.6,49.2,44.6,40.2,78,56,38,30.22,30.10,4,1,7,0.00
2013-5-19,85.2,70.0,53.7,62.9,56.4,45.6,90,64,44,30.11,29.94,4,1,6,0.00
2013-5-20,88.4,76.1,62.4,66.5,62.7,58.1,87,65,43,30.01,29.82,6,1,8,0.00
2013-5-21,88.7,75.2,65.0,69.6,63.5,58.1,82,68,50,29.91,29.72,4,2,9,0.00
2013-5-22,86.3,75.3,63.6,66.5,62.6,58.6,91,66,45,29.77,29.61,5,2,10,0.00
2013-5-23,74.1,63.1,44.0,63.2,57.3,42.1,93,82,66,29.92,29.66,5,3,11,0.29
2013-5-24,51.7,43.5,38.6,41.9,36.4,34.6,94,77,54,30.25,29.92,5,3,11,0.16
2013-5-25,59.2,49.7,37.3,38.6,35.3,31.6,92,60,40,30.28,30.19,5,2,10,0.00
2013-5-26,64.8,53.5,42.4,45.4,36.6,29.0,91,56,28,30.25,30.18,5,2,9,0.00
2013-5-27,73.6,59.0,40.1,46.1,38.3,29.4,97,55,21,30.28,30.11,3,1,5,0.00
2013-5-28,65.5,59.3,52.0,62.9,53.7,38.3,98,83,48,30.14,29.89,5,0,6,1.71
2013-5-29,80.3,69.7,63.6,64.4,62.1,58.1,97,78,57,30.00,29.86,6,3,18,0.47
2013-5-30,85.2,74.4,62.2,67.3,63.2,58.4,89,69,53,30.10,30.00,5,2,11,0.00
2013-5-31,89.2,78.6,66.5,66.5,64.0,61.1,90,63,42,30.04,29.90,5,2,14,0.00
2013-6-1,87.3,73.4,65.6,69.3,65.8,62.4,95,79,54,29.93,29.74,5,2,13,0.62
2013-6-2,73.0,67.6,56.3,65.4,61.2,50.1,97,81,63,29.89,29.66,7,3,16,1.45
2013-6-3,61.5,54.5,46.2,50.0,45.7,41.3,87,73,58,30.04,29.90,6,2,12,0.00
2013-6-4,68.9,57.5,44.1,46.9,41.7,33.9,87,59,28,30.17,30.04,3,1,6,0.00
2013-6-5,70.9,58.5,47.1,49.7,45.2,40.0,91,64,41,30.20,30.05,4,1,7,0.00
2013-6-6,60.0,56.4,52.8,58.9,51.7,40.5,97,85,55,30.05,29.81,3,1,11,1.31
2013-6-7,61.1,57.4,53.7,56.6,55.5,52.9,97,93,83,29.86,29.80,3,1,5,0.00
2013-6-8,64.0,58.7,56.0,57.8,55.9,53.1,98,91,76,30.08,29.83,4,1,7,0.02
2013-6-9,79.1,66.4,53.9,58.8,55.3,52.4,96,70,44,30.19,30.07,3,1,4,0.00
2013-6-10,75.5,66.6,61.8,66.9,62.4,56.4,96,86,71,30.07,29.68,5,1,9,0.15
2013-6-11,74.3,66.1,59.6,62.7,60.8,56.4,97,84,61,29.84,29.64,5,2,9,0.14
2013-6-12,70.7,65.0,57.8,56.7,55.4,53.5,89,72,55,29.86,29.73,0,0,1,0.00
2013-6-13,69.7,62.7,57.6,62.1,58.5,55.9,96,87,62,29.78,29.48,6,2,13,1.04
2013-6-14,74.6,62.9,53.4,60.9,57.1,52.4,98,83,54,29.99,29.77,3,1,8,0.00
2013-6-15,71.2,63.0,50.5,56.8,52.2,45.0,98,71,40,30.06,29.93,5,1,10,0.00
2013-6-16,75.3,68.3,63.3,66.2,61.1,54.6,90,78,70,29.94,29.76,5,2,9,0.15
2013-6-17,80.2,69.6,61.3,63.1,60.0,56.5,95,73,51,29.91,29.80,5,2,7,0.03
2013-6-18,70.1,63.7,54.6,57.2,52.1,45.8,92,68,42,30.02,29.86,4,2,8,0.00
2013-6-19,69.4,60.2,48.8,50.2,45.1,39.6,96,62,36,30.18,30.02,4,1,8,0.00
2013-6-20,80.5,64.4,44.9,50.7,46.1,32.5,95,56,18,30.24,30.18,4,1,6,0.00
2013-6-21,84.9,70.0,50.9,55.1,49.2,42.8,92,52,28,30.25,30.14,3,1,6,0.00
2013-6-22,87.8,76.2,63.9,68.7,62.7,50.9,78,64,50,30.14,29.97,6,2,15,0.00
2013-6-23,88.3,78.0,69.4,70.1,67.3,65.2,90,71,49,30.04,29.96,6,2,13,0.22
2013-6-24,84.9,77.3,72.5,69.0,66.3,63.5,81,69,52,30.03,29.91,6,2,11,0.00
2013-6-25,78.7,74.2,70.3,68.7,66.4,62.9,88,77,64,29.93,29.78,5,2,12,0.07
2013-6-26,79.8,73.0,68.1,69.2,66.1,64.1,92,79,62,29.82,29.76,6,2,10,0.00
2013-6-27,80.7,70.6,64.8,71.5,66.4,62.7,95,87,71,29.78,29.62,3,0,4,1.24
2013-6-28,73.7,65.9,62.2,67.5,64.1,61.0,97,94,79,29.62,29.48,2,0,3,1.33
2013-6-29,76.4,67.2,61.1,66.0,62.0,59.1,97,85,65,29.69,29.47,3,1,6,0.07
2013-6-30,79.6,69.6,60.3,65.8,61.6,58.2,96,77,59,29.90,29.69,4,1,7,0.00
2013-7-1,70.8,65.2,59.5,62.8,61.0,57.8,94,87,74,30.05,29.90,4,2,12,0.22
2013-7-2,77.3,67.1,58.4,67.5,62.3,56.8,95,85,70,30.07,30.00,3,1,6,0.00
2013-7-3,91.5,76.8,64.4,73.5,68.3,63.2,98,77,49,30.12,30.05,3,1,6,0.19
2013-7-4,85.5,75.2,69.5,71.3,69.3,67.9,96,83,58,30.16,30.08,3,1,7,0.07
2013-7-5,83.8,75.3,70.3,72.8,69.4,66.7,95,82,62,30.11,30.04,5,1,10,0.13
2013-7-6,87.3,77.2,67.7,71.7,68.6,65.5,95,76,55,30.13,30.00,4,1,9,0.00
2013-7-7,81.8,75.1,71.2,70.6,68.6,66.4,96,81,63,30.03,29.92,6,2,12,0.05
2013-7-8,83.3,75.2,69.9,71.5,68.8,66.5,94,81,60,30.04,29.95,5,2,11,0.00
2013-7-9,81.8,74.5,70.2,72.1,69.8,68.1,94,86,71,30.01,29.87,3,1,7,0.03
2013-7-10,79.4,72.5,70.0,72.7,68.2,60.9,97,87,70,29.87,29.69,7,2,16,0.00
2013-7-11,77.8,70.1,62.1,62.4,58.5,55.3,81,67,46,29.99,29.82,3,1,8,0.00
2013-7-13,75.4,73.0,70.6,70.4,69.4,68.4,93,88,83,30.22,30.19,0,0,1,0.01
2013-7-14,92.9,79.9,65.8,73.5,69.5,64.7,97,73,48,30.28,30.20,3,1,7,0.01
2013-7-15,92.9,81.8,74.2,74.9,70.7,58.9,91,71,40,30.27,30.21,3,0,7,0.00
2013-7-16,93.3,82.9,73.3,75.4,71.4,64.6,95,71,40,30.26,30.17,3,1,6,0.00
2013-7-17,90.4,81.2,76.7,80.0,76.1,72.3,98,85,63,30.21,30.06,6,2,12,0.03
2013-7-18,92.4,82.5,76.3,78.5,75.2,71.8,96,80,58,30.09,29.92,5,2,12,0.00
2013-7-19,89.9,82.1,68.4,76.0,72.6,65.0,97,74,56,29.92,29.69,7,3,26,1.35
2013-7-20,84.0,73.8,65.7,71.5,68.0,62.3,98,83,55,29.87,29.69,4,1,10,0.37
2013-7-21,80.5,72.4,65.0,64.6,61.5,58.1,85,69,52,29.97,29.87,3,0,6,0.00
2013-7-22,81.0,71.0,59.1,68.4,63.3,57.8,96,78,58,29.97,29.75,2,0,8,0.00
2013-7-23,81.8,72.4,62.8,70.5,66.3,56.5,97,82,59,29.75,29.60,5,1,14,0.40
2013-7-24,68.3,62.1,53.3,57.0,51.3,47.9,91,69,49,30.03,29.72,5,2,12,0.00
2013-7-25,76.2,63.7,49.3,57.1,52.2,48.3,97,69,42,30.11,30.03,2,0,8,0.00
2013-7-26,82.4,66.5,48.7,59.7,53.8,47.6,97,67,34,30.11,29.98,2,0,7,0.00
2013-7-27,79.2,69.0,59.4,66.3,60.8,55.4,95,76,53,29.98,29.78,4,1,10,0.57
2013-7-28,67.8,65.8,63.5,65.1,61.6,54.6,94,86,65,29.88,29.76,3,1,6,0.01
2013-7-29,67.2,64.1,60.8,58.2,57.3,55.9,85,79,73,30.14,30.08,3,1,6,0.33
2013-7-30,76.4,66.4,54.6,61.3,57.8,52.8,96,75,53,30.19,30.13,3,1,10,0.00
2013-7-31,82.0,69.6,57.6,64.5,57.6,51.3,94,69,36,30.14,29.90,3,0,7,0.00
2013-8-1,77.4,70.4,64.8,68.5,63.3,60.1,95,79,61,29.90,29.75,4,1,15,0.41
2013-8-2,78.8,68.5,57.0,65.7,60.6,56.2,98,78,50,29.87,29.80,6,2,23,0.20
2013-8-3,77.3,68.4,59.1,63.4,58.6,50.5,97,73,41,29.94,29.81,4,1,11,0.00
2013-8-4,74.4,64.6,55.4,58.6,53.6,47.8,91,69,47,30.07,29.94,4,1,12,0.00
2013-8-5,75.3,62.9,49.7,56.9,51.3,47.4,95,69,41,30.11,30.00,3,1,8,0.00
2013-8-6,82.5,69.4,54.9,60.8,55.5,50.9,90,64,36,30.03,29.93,2,0,6,0.00
2013-8-7,85.0,75.0,67.0,69.8,64.3,59.8,88,70,56,29.95,29.82,5,2,13,0.00
2013-8-8,84.5,75.2,65.4,72.1,68.7,64.3,97,81,62,29.93,29.85,4,1,9,1.12
2013-8-9,79.6,70.2,63.5,69.4,64.1,59.3,96,82,56,29.93,29.84,4,1,13,0.24
2013-8-10,76.3,67.8,57.5,64.8,56.4,45.1,94,69,41,30.08,29.92,4,1,9,0.00
2013-8-11,78.5,66.4,51.4,57.6,54.4,49.5,98,68,45,30.13,30.02,3,0,8,0.00
2013-8-12,77.8,70.1,59.9,65.2,60.7,56.8,91,73,53,30.04,29.83,5,1,11,0.00
2013-8-13,71.3,65.6,55.8,65.9,58.1,47.8,97,78,53,29.89,29.73,4,1,13,0.37
2013-8-14,71.5,61.2,52.5,53.0,48.7,43.3,90,66,38,30.09,29.88,5,2,13,0.00
2013-8-15,66.2,59.8,51.0,53.3,50.4,46.4,85,71,62,30.11,30.09,1,0,4,0.00
2013-8-16,77.0,63.0,51.6,60.9,54.9,49.1,93,76,48,30.19,30.11,3,1,7,0.00
2013-8-17,83.5,68.7,52.6,60.6,54.8,50.1,97,66,34,30.27,30.19,2,0,5,0.00
2013-8-18,84.3,70.2,54.8,62.7,57.2,52.5,93,67,41,30.23,30.09,3,0,9,0.00
2013-8-19,81.8,71.7,60.3,66.4,62.3,57.8,96,74,46,30.10,30.02,4,1,9,0.00
2013-8-20,81.6,72.5,63.1,68.8,64.5,59.1,92,77,57,30.12,30.04,5,1,10,0.00
2013-8-21,84.8,74.1,62.0,67.7,63.7,58.9,91,72,50,30.15,30.00,4,1,8,0.00
2013-8-22,81.9,73.0,63.1,72.1,66.5,57.6,93,80,67,30.01,29.90,5,1,12,0.44
2013-8-23,77.0,65.6,54.1,60.5,55.5,50.9,98,73,44,30.19,29.99,4,1,9,0.00
2013-8-24,79.6,65.1,50.3,58.0,52.7,49.4,98,69,36,30.34,30.19,2,0,4,0.00
2013-8-25,82.7,69.7,53.6,65.1,56.4,51.2,93,66,37,30.32,30.12,5,1,12,0.00
2013-8-26,79.1,72.6,70.1,70.5,67.3,61.7,96,84,69,30.15,29.92,5,2,13,0.90
2013-8-27,84.1,74.6,68.0,74.5,70.9,67.1,98,89,68,29.93,29.84,4,1,8,0.27
2013-8-28,84.3,75.2,67.8,73.3,70.4,66.0,97,86,66,29.94,29.82,3,0,7,0.32
2013-8-29,87.3,74.3,63.3,71.6,66.9,62.7,98,80,53,30.03,29.94,3,0,5,0.00
2013-8-30,83.0,74.1,64.7,70.8,67.9,63.6,97,82,61,29.99,29.72,4,1,8,0.01
2013-8-31,82.2,74.9,69.2,71.3,69.4,66.8,93,84,68,29.82,29.68,4,1,8,0.09
2013-9-1,84.4,73.9,65.8,72.9,68.4,64.6,97,84,63,29.81,29.72,2,0,4,0.16
2013-9-2,81.6,71.6,63.7,72.5,66.2,55.5,98,84,65,29.79,29.67,4,1,12,0.01
2013-9-3,68.8,63.3,59.2,59.7,56.8,54.3,87,80,71,29.96,29.78,3,1,10,0.00
2013-9-4,76.1,67.8,57.6,64.7,58.1,48.0,89,73,40,30.00,29.94,6,2,13,0.00
2013-9-5,66.6,59.5,48.4,62.5,49.0,39.4,97,71,39,30.24,29.97,4,1,11,0.00
2013-9-6,70.3,57.3,41.7,52.3,45.5,38.6,97,68,37,30.29,30.09,4,1,8,0.00
2013-9-7,67.7,62.8,56.8,64.1,56.8,51.7,93,81,65,30.10,29.87,4,1,11,0.37
2013-9-8,67.8,63.0,49.7,66.0,53.6,45.5,95,74,49,30.10,29.85,5,1,10,0.00
2013-9-9,74.7,61.4,45.0,65.1,52.7,42.8,94,75,55,30.13,29.93,4,1,10,0.00
2013-9-10,87.3,78.5,70.2,73.6,70.2,64.9,88,76,61,29.99,29.89,7,3,15,0.03
2013-9-11,87.9,80.5,68.6,73.5,71.5,65.2,91,75,58,30.01,29.88,6,2,13,0.15
2013-9-12,75.3,69.1,61.1,69.3,65.0,55.1,93,87,77,29.93,29.72,4,1,9,0.18
2013-9-13,61.1,53.7,49.5,56.1,49.7,44.1,92,86,76,30.05,29.77,4,1,8,0.06
2013-9-14,64.5,55.0,47.7,50.7,43.6,26.1,87,68,24,30.14,30.03,3,1,8,0.00
2013-9-15,67.3,58.5,47.9,54.6,49.3,40.3,94,72,56,30.15,30.04,4,1,11,0.12
2013-9-16,55.3,49.9,38.2,54.2,47.7,37.4,98,92,76,30.38,30.07,4,1,9,0.02
2013-9-17,67.5,50.0,33.7,47.2,41.3,33.2,98,76,41,30.49,30.28,2,0,6,0.00
2013-9-18,74.3,56.9,39.5,52.4,45.8,38.3,97,71,37,30.28,30.09,3,0,7,0.00
2013-9-19,77.0,62.4,48.4,60.2,54.6,47.3,97,78,54,30.12,29.99,3,1,8,0.00
2013-9-20,82.3,70.3,56.3,68.4,62.5,55.2,97,78,61,30.00,29.71,5,2,9,0.00
2013-9-21,74.6,62.7,53.5,67.4,60.3,49.7,97,92,74,29.75,29.60,5,1,11,3.29
2013-9-22,58.2,52.4,47.5,50.0,45.0,41.0,93,76,60,30.05,29.75,4,1,9,0.00
2013-9-23,60.8,51.9,41.3,43.9,42.1,39.5,95,71,46,30.16,30.04,2,1,6,0.00
2013-9-24,67.3,50.7,37.8,52.5,43.8,37.3,98,80,48,30.17,30.01,2,0,5,0.00
2013-9-25,72.3,53.6,38.4,53.3,45.0,37.8,98,77,42,30.03,29.94,3,0,6,0.00
2013-9-26,72.3,55.3,39.0,55.7,47.9,38.2,98,79,49,30.15,30.00,3,0,7,0.00
2013-9-27,70.5,57.7,46.0,57.3,52.0,45.2,98,83,59,30.25,30.15,2,0,6,0.00
2013-9-28,77.2,61.8,45.5,57.1,51.9,44.7,98,73,45,30.27,30.14,3,0,8,0.01
2013-9-29,77.0,62.5,46.8,57.8,52.9,45.4,96,73,49,30.14,29.97,4,1,9,0.02
2013-9-30,75.3,65.8,58.0,62.7,58.5,53.6,93,78,63,29.99,29.93,4,1,9,0.00
2013-10-1,73.1,66.4,59.9,63.3,61.2,58.2,95,84,67,30.01,29.90,5,1,12,0.00
2013-10-2,74.7,66.8,53.9,63.9,61.8,52.9,97,85,65,30.08,29.91,5,1,9,0.00
2013-10-3,72.7,59.9,44.9,58.3,49.3,43.8,98,73,36,30.12,30.00,1,0,4,0.08
2013-10-4,71.2,66.3,60.5,68.7,64.6,58.2,98,94,89,30.04,29.97,3,0,7,1.10
2013-10-5,66.5,61.3,59.0,63.2,59.7,57.0,98,94,88,30.08,29.98,2,0,6,0.49
2013-10-6,82.7,69.1,58.8,71.4,64.4,57.0,99,86,64,29.98,29.65,4,0,9,0.49
2013-10-7,76.2,59.0,48.1,64.9,53.4,45.8,95,82,64,30.06,29.63,6,2,14,0.78
2013-10-8,66.4,52.0,40.4,51.5,45.5,39.8,98,81,49,30.34,30.06,2,0,4,0.01
2013-10-9,57.5,44.1,38.1,47.2,41.7,36.8,98,91,66,30.39,30.33,1,0,2,0.00
2013-10-11,60.6,53.3,47.0,53.0,49.4,45.6,96,87,76,30.13,30.11,0,0,1,0.00
2013-10-12,78.1,58.5,40.3,55.6,45.2,39.5,98,68,28,30.18,30.08,2,0,5,0.01
2013-10-13,68.8,62.8,55.3,61.7,54.1,40.8,96,74,48,30.25,30.14,4,1,7,0.43
2013-10-14,66.1,55.5,44.1,59.6,49.6,43.0,97,82,53,30.35,30.25,3,0,7,0.11
2013-10-15,70.3,56.5,42.6,57.4,50.9,41.8,98,83,59,30.29,29.91,2,0,6,0.00
2013-10-16,69.8,62.7,53.7,60.7,56.5,48.3,94,81,64,29.91,29.73,5,2,12,0.70
2013-10-17,61.6,55.0,49.0,52.2,49.5,46.1,96,82,64,29.87,29.68,2,0,7,0.54
2013-10-18,61.9,53.8,46.0,50.4,44.9,37.5,91,74,45,29.90,29.73,5,2,12,0.03
2013-10-19,59.0,52.5,43.0,50.1,46.1,40.1,95,80,62,29.88,29.64,4,1,10,0.39
2013-10-20,55.4,47.0,41.5,46.0,41.1,36.9,96,80,63,29.97,29.77,4,1,12,0.00
2013-10-21,65.6,55.3,45.1,49.2,42.8,39.4,93,65,40,29.96,29.78,6,2,21,0.18
2013-10-22,50.1,44.9,39.7,48.7,35.0,27.1,95,70,49,29.86,29.76,5,2,17,0.38
2013-10-23,46.0,40.9,35.4,39.3,35.2,30.1,95,81,64,29.84,29.72,5,0,10,0.03
2013-10-24,49.9,39.7,33.7,36.0,33.0,29.3,90,78,49,30.05,29.82,4,1,12,0.00
2013-10-25,51.6,41.7,34.9,39.1,35.2,29.7,95,79,58,30.21,30.05,3,0,8,0.01
2013-10-26,45.9,43.1,38.3,41.1,36.0,31.5,91,77,59,30.13,29.77,9,4,20,0.56
2013-10-27,50.2,42.3,36.9,38.9,35.2,30.9,93,77,56,30.05,29.83,3,1,9,0.00
2013-10-28,48.2,42.3,26.3,39.5,31.7,21.5,90,67,44,30.40,30.04,4,1,11,0.00
2013-10-29,49.7,38.6,25.4,34.6,28.7,23.1,94,70,42,30.48,30.30,1,0,3,0.00
2013-10-30,61.2,46.4,36.3,41.7,38.3,34.3,96,76,43,30.31,30.08,0,0,3,0.01
2013-10-31,66.6,57.2,43.2,59.6,53.1,39.1,97,86,72,30.08,29.33,8,3,19,1.26
2013-11-1,64.5,55.4,46.4,58.6,49.5,43.6,93,81,71,29.66,29.13,11,5,23,0.33
2013-11-2,49.3,43.9,36.7,46.8,41.3,34.6,95,90,82,30.03,29.60,5,1,10,0.17
2013-11-3,38.9,32.6,22.5,34.6,25.3,20.7,95,75,52,30.56,30.03,3,1,9,0.00
2013-11-4,43.2,32.2,20.3,25.9,22.3,19.1,96,70,43,30.66,30.44,3,0,8,0.00
2013-11-5,60.9,46.9,30.2,37.8,30.1,20.0,77,53,40,30.47,30.31,4,1,9,0.00
2013-11-6,66.7,56.8,48.4,55.8,44.0,30.3,95,64,47,30.31,29.80,7,3,15,0.50
2013-11-7,55.2,43.2,38.2,53.2,36.5,29.0,94,77,62,30.02,29.79,4,2,9,0.17
2013-11-8,42.5,38.0,33.2,32.6,30.2,27.8,89,74,58,30.25,29.98,4,1,10,0.00
2013-11-9,51.8,44.0,34.2,45.5,32.6,27.3,88,65,44,30.24,29.79,8,2,14,0.07
2013-11-10,49.3,43.7,37.5,41.6,34.5,30.4,82,70,61,30.20,29.79,7,3,18,0.01
2013-11-11,45.1,37.9,29.3,39.7,32.9,24.0,94,82,65,30.20,29.94,7,2,20,0.43
2013-11-12,34.5,29.2,24.1,24.6,20.6,15.6,85,71,53,30.44,30.15,4,2,12,0.00
2013-11-13,39.9,32.8,24.2,29.3,24.0,17.7,86,70,57,30.46,30.12,9,3,18,0.00
2013-11-14,48.0,43.8,37.9,29.2,26.2,22.6,66,51,38,30.13,30.02,9,5,22,0.00
2013-11-15,51.8,46.8,42.0,38.9,29.6,25.5,74,51,40,30.11,30.05,6,3,15,0.00
2013-11-16,60.4,51.0,38.8,44.5,38.0,30.1,76,61,50,30.23,29.98,4,1,9,0.00
2013-11-17,64.4,58.9,52.1,56.8,51.8,44.4,90,77,68,29.98,29.32,9,5,17,0.30
2013-11-18,56.3,45.0,35.8,47.8,35.9,27.7,81,70,60,29.96,29.37,10,6,38,0.00
2013-11-19,38.7,33.7,22.8,28.4,24.5,20.3,91,69,55,30.48,29.96,4,2,12,0.00
2013-11-20,43.4,30.1,18.0,26.3,21.4,16.6,95,72,44,30.58,30.42,3,1,9,0.00
2013-11-21,45.4,38.9,24.1,38.6,27.8,14.0,92,66,39,30.43,30.24,5,1,10,0.05
2013-11-22,48.0,42.4,30.8,46.9,40.2,26.0,97,92,78,30.24,30.01,4,1,8,0.32
2013-11-23,33.9,27.4,19.1,26.9,19.4,9.0,86,72,48,30.27,30.06,6,3,22,0.00
2013-11-24,25.2,19.7,14.5,14.4,11.3,6.7,86,70,47,30.48,30.27,4,2,11,0.00
2013-11-25,36.2,28.3,18.3,29.5,16.2,9.6,88,62,36,30.43,30.11,7,4,17,0.00
2013-11-26,35.5,33.4,31.8,31.1,30.0,27.8,96,87,77,30.14,29.83,7,2,16,0.03
2013-11-27,32.0,29.4,23.0,31.1,26.1,17.6,97,88,72,29.98,29.70,0,0,0,0.00
2013-11-28,29.7,23.5,18.4,21.9,18.0,15.2,92,80,56,30.44,29.98,0,0,0,0.00
2013-11-29,31.2,23.7,17.4,21.6,17.4,11.9,93,78,57,30.75,30.44,2,0,7,0.16
2013-11-30,37.4,27.6,17.2,26.5,18.5,10.7,81,69,54,30.73,30.20,5,2,14,0.01
2013-12-1,41.3,37.3,33.8,33.3,29.7,26.4,78,74,64,30.20,29.95,3,1,8,0.15
2013-12-2,38.6,35.6,25.8,35.3,32.0,24.5,96,87,75,29.95,29.88,1,0,4,0.00
2013-12-3,40.9,31.2,20.6,30.1,26.1,19.4,97,83,59,30.01,29.93,2,0,6,0.00
2013-12-4,54.9,42.1,33.4,42.6,36.9,29.2,94,82,62,30.01,29.83,2,0,4,0.03
2013-12-5,60.8,51.0,38.5,53.3,44.4,32.3,87,78,71,30.04,29.71,7,4,15,0.00
2013-12-6,37.5,32.8,29.2,32.8,26.2,21.4,94,77,65,30.29,30.03,3,1,9,0.06
2013-12-7,30.4,26.1,20.1,22.9,17.3,11.4,82,69,51,30.61,30.28,4,1,12,0.00
2013-12-8,27.8,23.1,13.9,22.2,15.5,10.2,88,73,55,30.61,30.18,4,1,8,0.00
2013-12-9,38.1,32.7,27.0,35.2,28.8,21.6,95,86,75,30.18,29.87,8,3,17,0.04
2013-12-10,29.8,23.6,20.3,23.5,14.8,9.7,92,69,59,30.11,29.92,7,3,16,0.00
2013-12-11,22.3,18.2,14.1,12.8,9.8,7.3,75,70,62,30.34,30.11,6,3,15,0.00
2013-12-12,20.5,15.6,10.6,18.7,9.0,2.3,93,75,60,30.38,30.11,6,3,16,0.00
2013-12-13,26.3,18.8,13.6,20.7,13.9,8.9,89,81,71,30.43,30.09,7,3,15,0.00
2013-12-14,16.2,14.4,12.7,14.0,11.0,6.2,91,86,73,30.44,29.76,4,2,11,0.00
2013-12-15,19.3,17.7,16.2,17.6,15.8,14.0,93,92,91,29.76,29.67,3,1,5,0.00
2013-12-16,12.7,9.9,6.0,10.3,7.4,3.5,91,89,86,30.20,30.17,0,0,0,0.00
2013-12-17,28.2,20.1,5.6,25.8,16.8,3.3,94,87,76,30.17,29.93,5,1,11,0.00
2013-12-18,32.2,27.8,23.8,25.2,22.5,19.7,90,81,70,30.08,29.95,6,2,14,0.00
2013-12-19,41.8,34.8,27.3,33.6,28.5,19.5,93,78,68,30.04,29.90,6,2,13,0.16
2013-12-20,42.7,39.5,34.5,41.6,38.3,33.0,98,96,92,30.00,29.77,3,1,10,0.75
2013-12-21,52.3,41.2,31.5,50.8,40.1,30.2,98,96,91,29.87,29.71,5,2,12,1.17
2013-12-22,40.6,35.0,31.1,39.7,33.7,29.8,98,95,90,29.98,29.59,5,2,12,1.99
2013-12-23,38.5,33.4,24.0,35.8,29.0,18.0,93,84,72,30.29,29.95,5,2,14,0.00
2013-12-24,25.5,19.6,8.5,22.0,15.4,4.5,93,84,75,30.54,30.22,4,1,9,0.00
2013-12-25,27.0,14.9,2.9,18.8,9.4,0.4,92,79,66,30.56,30.22,4,0,9,0.00
2013-12-26,32.0,27.3,20.1,27.7,21.7,13.8,94,80,70,30.31,30.07,5,2,14,0.00
2013-12-27,36.4,29.1,20.1,30.1,24.9,14.3,91,84,76,30.31,30.08,6,2,12,0.00
2013-12-28,42.7,38.6,36.0,35.0,32.7,29.2,90,79,66,30.12,29.93,6,3,15,0.16
2013-12-29,45.9,41.1,26.7,37.7,31.0,21.3,89,68,48,29.94,29.63,5,3,14,0.00
2013-12-30,26.6,19.3,16.3,21.3,12.2,7.9,88,74,61,30.24,29.81,4,1,12,0.00
2013-12-31,22.1,17.5,12.7,20.0,11.4,4.9,92,77,61,30.27,29.98,7,2,16,0.00
2014-1-1,22.2,15.8,11.4,12.7,8.8,4.2,89,74,55,30.44,30.27,5,1,11,0.00
2014-1-2,13.5,9.4,4.2,10.6,6.3,0.7,89,87,84,30.32,30.03,8,4,15,0.00